This is the latest recevied weather packets stored in our database for station/object JE4YKI-13. If no packets are shown the sender has not sent any weather packets the latest 10 day(s).
| Time | Temp. | Humidity | Pressure | Rain* | Wind** | Luminosity | Snow |
|---|---|---|---|---|---|---|---|
| 1777829296 | 16.11° C | 79% | 1002.3 hPa | 0 mm | - | - | - |
| 1777828695 | 16.11° C | 79% | 1002.5 hPa | 0 mm | - | - | - |
| 1777828095 | 16.11° C | 80% | 1002.5 hPa | 0 mm | - | - | - |
| 1777827495 | 15.56° C | 82% | 1002.5 hPa | 0 mm | - | - | - |
| 1777826894 | 15.56° C | 84% | 1002.3 hPa | 0 mm | - | - | - |
| 1777826294 | 15.56° C | 85% | 1002.1 hPa | 0 mm | - | - | - |
| 1777825693 | 15.56° C | 85% | 1002.1 hPa | 0 mm | - | - | - |
| 1777825093 | 15.56° C | 85% | 1002.2 hPa | 0 mm | - | - | - |
| 1777824493 | 15.56° C | 84% | 1002.1 hPa | 0 mm | - | - | - |
| 1777823892 | 15.56° C | 85% | 1001.9 hPa | 0 mm | - | - | - |
| 1777823292 | 15.56° C | 85% | 1001.9 hPa | 0 mm | - | - | - |
| 1777822692 | 15.56° C | 85% | 1001.7 hPa | 0 mm | - | - | - |
| 1777822092 | 15.56° C | 86% | 1001.9 hPa | 0 mm | - | - | - |
| 1777821491 | 16.11° C | 85% | 1001.8 hPa | 0 mm | - | - | - |
| 1777820890 | 16.11° C | 86% | 1001.9 hPa | 0 mm | - | - | - |
| 1777820290 | 16.11° C | 87% | 1001.7 hPa | 0 mm | - | - | - |
| 1777819690 | 16.11° C | 86% | 1001.6 hPa | 0 mm | - | - | - |
| 1777819089 | 16.11° C | 86% | 1001.4 hPa | 0 mm | - | - | - |
| 1777818489 | 16.67° C | 86% | 1001.2 hPa | 0 mm | - | - | - |
| 1777817889 | 16.67° C | 85% | 1001.4 hPa | 0 mm | - | - | - |
| 1777817288 | 17.22° C | 82% | 1001.1 hPa | 0 mm | - | - | - |
| 1777816188 | 17.22° C | 82% | 1001.3 hPa | 0 mm | - | - | - |
| 1777816088 | 17.22° C | 82% | 1001.3 hPa | 0 mm | - | - | - |
| 1777815487 | 17.22° C | 89% | 1001.3 hPa | 0 mm | - | - | - |
| 1777815047 | 17.22° C | 91% | 1001.3 hPa | 0 mm | - | - | - |
* Rain latest hour (hover to see other rain measurements)
** Current wind speed in m/s (hover to see current wind gust speed)